Starlink 5149

operational
NORAD ID: 53981 Int'l Des: 2022-125 Owner: SPXS Country: US Constellation: starlink
LEOCIRCULAR

About Starlink 5149

Description loading...

Live Position

Loading 3D Globe...

Upcoming Passes

Altitude History

Altitude vs Time

uPlot chart will show altitude changes over time

Two-Line Element Set

1 53981U 22125T 25257.47329248 -.00001096 00000-0 -50820-4 0 9995
2 53981 53.2152 274.9652 0001318 91.6782 268.4361 15.08834320163001
Epoch: Sep 14, 2025 • Age: 25 hours

Current Status

Altitude 539.6 km
Velocity 7.60 km/s
Sub-Earth Point 15.14°N, 94.67°W
Launch Date Oct 5, 2022
Age 2.9 years
Type internet

Technical Details

Classification Payload
Mass 305.00 kg
Dry Mass 290.00 kg
Total Mass 305.00 kg
Length 0.20 m
Diameter 2.80 m
Span 9.00 m
Shape Box + pan
Manufacturer SPXS
Bus Type Starlink
Phase Status In Orbit
Owner/State SPXS/US

Large Constellations

Loading constellations...